Regional Weather Roundup
Issued by NWS State College, PA

Home | Current Version | Previous Version | Text Only | Print | Product List | Glossary Off
Versions: 1 2 3 4 5 6 7 8 9 10 11 12 13 14 15 16 17 18 19 20 21 22 23 24 25 26 27 28 29 30 31 32 33 34 35 36 37 38 39 40 41 42 43 44 45 46 47 48 49 50

000
ASUS41 KCTP 220710
RWRCTP

REGIONAL WEATHER ROUNDUP
NATIONAL WEATHER SERVICE STATE COLLEGE PA
300 AM EDT MON SEP 22 2014

Note: "fair" indicates few or no clouds below 12,000 feet with no
significant weather and/or obstructions to visibility.

* = STATION THAT DOES NOT REPORT PRECIPITATION /E.G. RAIN...SNOW...ETC/
    THUNDER OR FOG.

PAZ002>004-007>009-013>016-020>023-029>032-220800-
WESTERN PENNSYLVANIA

CITY           SKY/WX    TMP DP  RH WIND       PRES   REMARKS
ERIE           CLOUDY    55  46  71 NW14G22   29.92R
MEADVILLE      CLOUDY    50  47  89 NW10G21   29.93R FOG
FRANKLIN*      CLOUDY    50  45  81 NW9       29.92S
NEW CASTLE     NOT AVBL
BEAVER COUNTY  NOT AVBL
BUTLER*        CLOUDY    54  46  76 W5        29.94S
PITTSBURGH INT CLOUDY    54  49  83 NW12      29.93R
PITTSBURGH     CLOUDY    54  47  77 NW8G18    29.92R
INDIANA*       CLOUDY    54  50  87 NW10G18   29.92R
LATROBE        MOCLDY    55  52  88 W12       29.91S
WASHINGTON CO* CLOUDY    54  46  76 NW7       29.95S
$$

PAZ004>006-010>012-017>019-024>028-033>037-041-042-045-046-049>053-220800-
CENTRAL PENNSYLVANIA

CITY           SKY/WX    TMP DP  RH WIND       PRES   REMARKS
BRADFORD       CLOUDY    49  46  90 W13G22    29.84S
DUBOIS         CLOUDY    50  49  96 NW12G23   29.86R FOG
CLEARFIELD     CLOUDY    54  49  83 W10G22    29.83R
JOHNSTOWN      CLOUDY    51  48  89 NW17G25   29.87S
ALTOONA        CLOUDY    57  47  69 NW15      29.86R
STATE COLLEGE  CLOUDY    57  49  75 W10       29.81R
WILLIAMSPORT   RAIN      61  52  72 W6        29.74S
SELINSGROVE    MOCLDY    63  49  60 VRB5      29.78R
FT INDIANTOWN  CLEAR     64  51  61 W7G20     29.77R
CAPITAL CITY   CLEAR     63  49  60 W10       29.78R
HARRISBURG     PTCLDY    65  50  58 W10       29.77R
YORK           CLEAR     61  49  64 W5        29.80R
$$

PAZ038>040-043-044-047-048-054-055-060>062-067>071-220800-
EASTERN PENNSYLVANIA

CITY           SKY/WX    TMP DP  RH WIND       PRES   REMARKS
SCRANTON       CLOUDY    60  55  83 SW6       29.73S
MOUNT POCONO   CLEAR     55  32  41 NW13      29.72F
ALLENTOWN      CLEAR     64  54  69 W13G18    29.72R
QUAKERTOWN*    SUNNY     63  55  77 W5        29.74R
READING        CLEAR     64  53  67 CALM      29.74R
LANCASTER      CLEAR     62  54  74 W10       29.77R
COATESVILLE    SUNNY     61  59  94 NW9       29.77R
POTTSTOWN      CLEAR     62  58  86 CALM      29.75R
BLUE BELL      PTCLDY    63  61  94 CALM      29.72S
DOYLESTOWN     PTCLDY    65  55  70 NW6       29.72R
WILLOW GROVE   NOT AVBL
NORTH PHILA    MOCLDY    67  58  72 W6        29.73R
PHILADELPHIA   PTCLDY    70  58  65 W8        29.73R
$$



USA.gov is the U.S. government's official web portal to all federal, state and local government web resources and services.